Domov               UVHVVR             MKGP            O straneh              
ZDRAVSTVENO VARSTVO RASTLIN
  MREŽA AGROMET. POSTAJ
 ► PROGNOSTIČNA OBVESTILA
AGROMETEOROLOŠKI PODATKI -
ARSO
OBVLADOVANJE TVEGANJ ZARADI
NEUGODNIH VREMENSKIH RAZMER
  ► NARAVNE NESREČE
  ► SUŠA/MOČA
  ► NAMAKANJE
  ► ŽLED (gozdarstvo)
KARTOGRAFSKI PRIKAZI
SPLETNE POVEZAVE
PROJEKTI IN PUBLIKACIJE

AGROMETEOROLOŠKA MREŽA: VREMENSKE POSTAJE IN FENOLOŠKA OPAZOVANJA

Pregled podatkov za lokacijo Svečina, meteorološka postaja 24393

Pregled senzorjev na lokaciji

ID Ime Zadnja
vrednost
Datum
zadnje
spremembe
Tip
senzorja
922 Omočenost lista (U) 0 U 24.8.2017 08:00 A730WET
923 Temperatura 2 m ( °C) 15,48 °C 24.8.2017 08:00 Generic -40 - +60 °C
924 Relativna vlaga 2 m (% RH) 77,68 % RH 24.8.2017 08:00 Generic 0 - 100 %
925 Padavine 0.2 mm (mm) 0 mm 24.8.2017 08:00 Generic 0.2 mm

Pregled podatkov zadnjih 24 ur

Zap.
št.
Datum in čas Svečina
Omočenost
lista
Padavine
0.2
mm
Relativna
vlaga
2
m
Temperatura
2
m
0 24.8.2017 07:00 0 0 77,68 15,48
1 24.8.2017 06:30 0 0 86,86 13,06
2 24.8.2017 06:00 0 0 87,28 12,89
3 24.8.2017 05:30 0 0 86,3 12,82
4 24.8.2017 05:00 0 0 85,98 13,14
5 24.8.2017 04:30 0 0 88,74 13,04
6 24.8.2017 04:00 0 0 88,45 13,38
7 24.8.2017 03:30 0 0 87,47 13,65
8 24.8.2017 03:00 0 0 84,71 14,33
9 24.8.2017 02:30 0 0 86,98 13,97
10 24.8.2017 02:00 0 0 84,03 14,6
11 24.8.2017 01:30 0 0 86,11 14,21
12 24.8.2017 01:00 0 0 85,23 14,29
13 24.8.2017 00:30 0 0 84,54 14,29
14 24.8.2017 00:00 0 0 85,27 14,43
15 23.8.2017 23:30 0 0 84,49 14,46
16 23.8.2017 23:00 0 0 83,74 14,7
17 23.8.2017 22:30 0 0 82,34 14,95
18 23.8.2017 22:00 0 0 79,41 15,19
19 23.8.2017 21:30 0 0 78,14 15,56
20 23.8.2017 21:00 0 0 72,23 16,48
21 23.8.2017 20:30 0 0 67,4 17,46
22 23.8.2017 20:00 0 0 63,42 18,29
23 23.8.2017 19:30 0 0 59,9 19,15
24 23.8.2017 19:00 0 0 57 20,17
25 23.8.2017 18:30 0 0 53,68 21,12
26 23.8.2017 18:00 0 0 50,5 21,86
27 23.8.2017 17:30 0 0 45,23 23,52
28 23.8.2017 17:00 0 0 43,79 23,96
29 23.8.2017 16:30 0 0 43,81 23,98
30 23.8.2017 16:00 0 0 43,66 24,15
31 23.8.2017 15:30 0 0 43,22 24,2
32 23.8.2017 15:00 0 0 43,03 23,83
33 23.8.2017 14:30 0 0 41,25 23,93
34 23.8.2017 14:00 0 0 42,25 23,49
35 23.8.2017 13:30 0 0 41,83 23,03
36 23.8.2017 13:00 0 0 44,79 22,47
37 23.8.2017 12:30 0 0 45,32 21,86
38 23.8.2017 12:00 0 0 47,69 21,34
39 23.8.2017 11:30 0 0 47,81 20,85
40 23.8.2017 11:00 0 0 47,55 20,29
41 23.8.2017 10:30 0 0 48,86 20,12
42 23.8.2017 10:00 0 0 52,38 19,34
43 23.8.2017 09:30 0 0 53,89 18,71
44 23.8.2017 09:00 0 0 54,02 18,12
© 2011 Ministrstvo za kmetijstvo, gozdarstvo in prehrano. Vse pravice pridržane.